Moline, IL

11:15 PM CDT on April 29, 2017 (GMT -0500)
Quad-City International

Weather History for KMLI - September, 2013

Change the Weather History Date:

Friday, September 6, 2013

  Actual Average Record
Temperature  
Mean Temperature 73 °F 69 °F  
Max Temperature 88 °F 80 °F 100 °F (1922)
Min Temperature 57 °F 58 °F 40 °F (1988)
Degree Days  
Heating Degree Days 0 1  
Month to date heating degree days 0 6  
Since 1 July heating degree days 11 14  
Cooling Degree Days 8 5  
Month to date cooling degree days 40 36  
Year to date cooling degree days 854 919  
Growing Degree Days 22 (Base 50)    
Moisture  
Dew Point 58 °F    
Average Humidity 61    
Maximum Humidity 86    
Minimum Humidity 36    
Precipitation  
Precipitation 0.00 in 0.11 in 2.40 in (1989)
Month to date precipitation 0.00 0.70  
Year to date precipitation 32.61 27.86  
Snow  
Snow 0.00 in 0.00 in - ()
Month to date snowfall 0.0 0.0  
Since 1 July snowfall 0.0 0.0  
Since 1 September snowfall 0.0 0.0  
Snow Depth 0.00 in    
Sea Level Pressure  
Sea Level Pressure 30.10 in    
Wind  
Wind Speed 6 mph (SSE)    
Max Wind Speed 16 mph    
Max Gust Speed 21 mph    
Visibility 10 miles    
Events      
T = Trace of Precipitation, MM = Missing Value Source: NWS Daily Summary

Daily Weather History Graph

Daily Weather History Graph

Search for Another Location

Airport or City:

Trip Planner

Search our weather history database for the weather conditions in past years. The results will help you decide how hot, cold, wet, or windy it might be!

Date:

Astronomy

Sep. 06, 2013 Rise Set
Actual Time 6:33 AM CDT 7:26 PM CDT
Civil Twilight 6:05 AM CDT 7:54 PM CDT
Nautical Twilight 5:31 AM CDT 8:27 PM CDT
Astronomical Twilight 4:57 AM CDT 9:02 PM CDT
Moon 7:47 AM CDT (9/6) 7:48 PM CDT (9/6)
Length of Visible Light 13h 48m
Length of Day
12h 52m
New Moon, 2% of the Moon is Illuminated
Sep 6
New Moon
Sep 12
First Quarter
Sep 19
Full
Sep 26
Last Quarter
Oct 4
New

Hourly Weather History & Observations

Time (CDT) Temp. Heat Index Dew Point Humidity Pressure Visibility Wind Dir Wind Speed Gust Speed Precip Events Conditions
12:52 AM 64.0 °F - 57.0 °F 78% 30.19 in 10.0 mi East 6.9 mph - N/A   Clear
1:52 AM 63.0 °F - 57.0 °F 81% 30.18 in 10.0 mi East 5.8 mph - N/A   Clear
2:52 AM 61.0 °F - 55.0 °F 81% 30.17 in 10.0 mi East 5.8 mph - N/A   Clear
3:52 AM 60.1 °F - 54.0 °F 80% 30.17 in 10.0 mi East 5.8 mph - N/A   Clear
4:52 AM 60.1 °F - 53.1 °F 78% 30.18 in 10.0 mi East 5.8 mph - N/A   Clear
5:52 AM 57.9 °F - 53.1 °F 84% 30.18 in 10.0 mi Calm Calm - N/A   Clear
6:52 AM 57.9 °F - 52.0 °F 81% 30.19 in 10.0 mi East 4.6 mph - N/A   Clear
7:52 AM 61.0 °F - 53.1 °F 75% 30.19 in 10.0 mi East 4.6 mph - N/A   Clear
8:52 AM 66.0 °F - 55.0 °F 68% 30.18 in 10.0 mi SE 6.9 mph - N/A   Clear
9:52 AM 73.0 °F - 59.0 °F 61% 30.16 in 10.0 mi Calm Calm - N/A   Clear
10:52 AM 79.0 °F - 61.0 °F 54% 30.15 in 10.0 mi South 3.5 mph - N/A   Clear
11:52 AM 84.0 °F 84.4 °F 61.0 °F 46% 30.14 in 10.0 mi SSW 10.4 mph - N/A   Clear
12:52 PM 84.9 °F 84.8 °F 60.1 °F 43% 30.11 in 10.0 mi SSW 8.1 mph - N/A   Clear
1:52 PM 87.1 °F 86.5 °F 59.0 °F 39% 30.08 in 10.0 mi South 10.4 mph - N/A   Clear
2:52 PM 88.0 °F 87.6 °F 60.1 °F 39% 30.06 in 10.0 mi SSW 10.4 mph - N/A   Clear
3:52 PM 88.0 °F 87.1 °F 59.0 °F 37% 30.04 in 10.0 mi SSE 8.1 mph - N/A   Clear
4:52 PM 87.1 °F 86.1 °F 57.9 °F 37% 30.03 in 10.0 mi SSW 9.2 mph - N/A   Clear
5:52 PM 84.9 °F 84.8 °F 60.1 °F 43% 30.01 in 10.0 mi South 8.1 mph - N/A   Clear
6:52 PM 81.0 °F 81.6 °F 60.1 °F 49% 30.01 in 10.0 mi South 4.6 mph - N/A   Clear
7:52 PM 75.0 °F - 63.0 °F 66% 30.01 in 10.0 mi SSE 5.8 mph - N/A   Clear
8:52 PM 75.0 °F - 62.1 °F 64% 30.01 in 10.0 mi South 5.8 mph - N/A   Clear
9:52 PM 73.9 °F - 62.1 °F 66% 30.00 in 10.0 mi South 5.8 mph - N/A   Clear
10:52 PM 73.9 °F - 61.0 °F 64% 29.99 in 10.0 mi South 8.1 mph - N/A   Clear
11:52 PM 73.0 °F - 61.0 °F 66% 29.99 in 10.0 mi South 8.1 mph - N/A   Clear